This is the latest recevied weather packets stored in our database for station/object KF7SOJ. If no packets are shown the sender has not sent any weather packets the latest 10 day(s).
| Time | Temp. | Humidity | Pressure | Rain* | Wind** | Luminosity | Snow |
|---|---|---|---|---|---|---|---|
| 1777675281 | 23.33° C | 16% | 933 hPa | 0 mm | - | 603 W/m² | - |
| 1777674977 | 23.89° C | 17% | 932.9 hPa | 0 mm | - | 618 W/m² | - |
| 1777674675 | 22.78° C | 15% | 933.1 hPa | 0 mm | - | 629 W/m² | - |
| 1777674386 | 23.33° C | 16% | 933 hPa | 0 mm | - | 651 W/m² | - |
| 1777674068 | 22.78° C | 17% | 933.1 hPa | 0 mm | - | 662 W/m² | - |
| 1777673764 | 23.33° C | 16% | 933.2 hPa | 0 mm | - | 681 W/m² | - |
| 1777673461 | 23.33° C | 18% | 933.4 hPa | 0 mm | - | 695 W/m² | - |
| 1777673159 | 22.78° C | 18% | 933.3 hPa | 0 mm | - | 705 W/m² | - |
| 1777672855 | 22.78° C | 18% | 933.4 hPa | 0 mm | - | 722 W/m² | - |
| 1777672552 | 22.78° C | 18% | 933.3 hPa | 0 mm | - | 733 W/m² | - |
| 1777672247 | 23.33° C | 17% | 933.5 hPa | 0 mm | - | 745 W/m² | - |
| 1777671943 | 22.78° C | 16% | 933.4 hPa | 0 mm | - | 759 W/m² | - |
| 1777671638 | 22.78° C | 19% | 933.6 hPa | 0 mm | - | 770 W/m² | - |
| 1777671336 | 23.33° C | 16% | 933.5 hPa | 0 mm | - | 783 W/m² | - |
| 1777671032 | 22.22° C | 22% | 933.6 hPa | 0 mm | - | 795 W/m² | - |
| 1777670728 | 22.78° C | 18% | 933.7 hPa | 0 mm | - | 807 W/m² | - |
| 1777670426 | 22.22° C | 19% | 933.6 hPa | 0 mm | - | 818 W/m² | - |
| 1777670122 | 21.67° C | 18% | 933.7 hPa | 0 mm | - | 829 W/m² | - |
| 1777669821 | 22.22° C | 18% | 933.7 hPa | 0 mm | - | 841 W/m² | - |
| 1777669516 | 22.22° C | 17% | 934 hPa | 0 mm | - | 846 W/m² | - |
| 1777669213 | 22.78° C | 17% | 933.8 hPa | 0 mm | - | 861 W/m² | - |
| 1777668909 | 22.22° C | 19% | 933.9 hPa | 0 mm | - | 870 W/m² | - |
| 1777668608 | 21.67° C | 19% | 934 hPa | 0 mm | - | 876 W/m² | - |
| 1777668303 | 22.22° C | 20% | 934 hPa | 0 mm | - | 882 W/m² | - |
| 1777667999 | 21.67° C | 19% | 933.8 hPa | 0 mm | - | 893 W/m² | - |
* Rain latest hour (hover to see other rain measurements)
** Current wind speed in m/s (hover to see current wind gust speed)